Regional Weather Roundup
Issued by NWS

Home | Current Version | Previous Version | Text Only | Print | Product List | Glossary Off
Versions: 1 2 3 4 5 6 7 8 9 10 11 12 13 14 15 16 17 18 19 20 21 22 23 24 25 26 27 28 29 30 31 32 33 34 35 36 37 38 39 40 41 42 43 44 45 46 47 48 49 50

000
ASUS43 KLOT 240612
RWRIL

ILLINOIS REGIONAL WEATHER ROUNDUP
NATIONAL WEATHER SERVICE CHICAGO/ROMEOVILLE IL
1200 AM CST FRI FEB 24 2017

NOTE: "FAIR" INDICATES FEW OR NO CLOUDS BELOW 12,000 FEET WITH NO
SIGNIFICANT WEATHER AND/OR OBSTRUCTIONS TO VISIBILITY.

* THESE STATIONS ARE NOT UNDER NWS QUALITY CONTROL. THEY ALSO MAY NOT
  REPORT WEATHER SUCH AS PRECIPITATION OR FOG.

ILZ001-002-007-009-015-016-024-240700-
NORTHWEST ILLINOIS

CITY           SKY/WX    TMP DP  RH WIND       PRES   REMARKS
MOLINE         CLOUDY    41  36  82 E17       29.56F
6HR MIN TEMP:  41; 6HR MAX TEMP:  48; 6HR PCP:  0.01;

STERLING*      CLOUDY    37  36  96 E23G30    29.57F WCI  26
$$

ILZ003-004-008-010-011-017-018-240700-
NORTH CENTRAL ILLINOIS

CITY           SKY/WX    TMP DP  RH WIND       PRES   REMARKS
ROCKFORD       TSTM      37  34  89 NE22      29.65F FOG     WCI  26
6HR MIN TEMP:  36; 6HR MAX TEMP:  39; 6HR PCP:  0.35;

FREEPORT*      TSTM      34  33  96 E21G32    29.61F WCI  22
ROCHELLE*      CLOUDY    37  36  97 E10G26    29.61F THUNDER WCI  30
DE KALB*       CLOUDY    38  37  96 E23G29    29.61F THUNDER WCI  27
PERU*          CLOUDY    39  37  94 E14G21    29.60S FOG     WCI  31
$$

ILZ005-006-012>014-019>023-240700-
NORTHEAST ILLINOIS

CITY           SKY/WX    TMP DP  RH WIND       PRES   REMARKS
CHICAGO-OHARE  CLOUDY    40  37  89 NE17G24   29.66F
6HR MIN TEMP:  38; 6HR MAX TEMP:  40; 6HR PCP:  0.20;

CHICAGO-MIDWAY CLOUDY    41  38  89 NE15G23   29.64F
6HR MIN TEMP:  38; 6HR MAX TEMP:  42; 6HR PCP:  0.12;

AURORA         LGT RAIN  40  37  89 NE24G31   29.61F
6HR MIN TEMP:  38; 6HR MAX TEMP:  40; 6HR PCP:  0.09;

LANSING*       CLOUDY    39  39 100 NE7       29.64F WCI  34
JOLIET*        CLOUDY    42  41  96 NE9       29.61F
WAUKEGAN       MIX PCPN  37  35  92 NE24G32   29.69F WCI  26
6HR MIN TEMP:  36; 6HR MAX TEMP:  37; 6HR PCP:  0.16;

DUPAGE AIRPORT LGT RAIN  39  36  89 NE18G24   29.63F WCI  30
6HR MIN TEMP:  37; 6HR MAX TEMP:  39; 6HR PCP:  0.11;

KANKAKEE*      CLOUDY    42  41  97 E10       29.59F
WHEELING       CLOUDY    38  36  92 NE16G23   29.70F WCI  29
6HR MIN TEMP:  36; 6HR MAX TEMP:  38; 6HR PCP:  0.09;

MORRIS*        CLOUDY    41  39  94 NE5       29.60F
ROMEOVILLE*    CLOUDY    40  40 100 NE15G23   29.62F FOG
NORTHERLY ISL    N/A     39  37  92 NW13        N/A  WCI  31
$$

LMZ740>746-240700-
SOUTHERN LAKE MICHIGAN

STATION/POSITION SKY/WX   TEMP    WIND        PRES    VSBY  WAVE
                          AIR SEA DIR/SP/G                  HT/PER
                          (F)     (DEG/KT/KT) (MB)    (MI)  (FT/S)
HARRISON CRIB              38     350/ 15/ 16   N/A
BURNHAM HARBOR             39     340/ 14/ 14   N/A
CALUMET HARBOR                    340/  8/ 11 1004.0F
BURNS HARBOR               36     360/  7/ 12 1005.1F
MICHIGAN CITY              40      30/  4/  6   N/A
$$

ILZ025>027-034>036-040-047-049-050-058-095>099-240700-
WEST-CENTRAL ILLINOIS

CITY           SKY/WX    TMP DP  RH WIND       PRES   REMARKS
QUINCY         CLEAR     57  54  89 SE14      29.42F
GALESBURG*     CLOUDY    42  41  96 NE14      29.50F
MACOMB*        CLOUDY    48  47  96 E10       29.50F FOG
JACKSONVILLE*  MOCLDY    56  52  88 E7        29.48F
PITTSFIELD*    PTCLDY    57  54  89 SE7       29.46F
$$

ILZ028>032-037-038-041>044-048-051>054-059>061-240700-
CENTRAL ILLINOIS

CITY           SKY/WX    TMP DP  RH WIND       PRES   REMARKS
PONTIAC        DRIZZLE   44  43  98 E15       29.57F
BLOOMINGTON    LGT RAIN  46  45  96 SE17      29.56F FOG
DECATUR        CLOUDY    57  52  83 SE9       29.56F
PEORIA         CLOUDY    45  43  93 E15       29.52F
6HR MIN TEMP:  44; 6HR MAX TEMP:  49; 6HR PCP: TRACE;

LACON*         CLOUDY    40  40  98 E8        29.56F
LINCOLN*       RAIN      56  54  93 SE14      29.51F
SPRINGFIELD    CLOUDY    61  54  77 SE12      29.52F
6HR MIN TEMP:  57; 6HR MAX TEMP:  61;

TAYLORVILLE    CLOUDY    60  54  80 SE13      29.52F
6HR MIN TEMP:  59; 6HR MAX TEMP:  62;

$$

ILZ033-039-045-046-055>057-062-063-240700-
EAST-CENTRAL ILLINOIS

CITY           SKY/WX    TMP DP  RH WIND       PRES   REMARKS
CHAMPAIGN      CLOUDY    55  51  86 E10       29.60F
RANTOUL*       LGT RAIN  53  51  92 E7        29.60F
MATTOON        CLOUDY    61  55  81 S14       29.58F
PARIS*         PTCLDY    57  54  90 SE6       29.62S
$$

ILZ079-100>102-240700-
SOUTHWEST ILLINOIS

CITY           SKY/WX    TMP DP  RH WIND       PRES   REMARKS
ALTON          CLOUDY    59  53  81 SE9       29.51F
BELLEVILLE     CLOUDY    62  58  85 E7        29.52F
CAHOKIA*       MOCLDY    63  53  70 SE3       29.51F
SPARTA*        CLOUDY    63  55  75 S14       29.58R
$$

ILZ064>066-069>071-074>076-080>082-084>086-088>090-092>094-240700-
SOUTH-CENTRAL ILLINOIS

CITY           SKY/WX    TMP DP  RH WIND       PRES   REMARKS
CARBONDALE     PTCLDY    64  58  80 S18G24    29.57F
6HR MIN TEMP:  64; 6HR MAX TEMP:  68;

CAIRO*         CLOUDY    63  57  82 S16G23    29.62S
EFFINGHAM*     PTCLDY    61  56  81 SE9       29.60S
MARION         PTCLDY    64  61  88 S16G24    29.59F
MT. VERNON     PTCLDY    63  56  78 S12G17    29.59S
CENTRALIA*     PTCLDY    63  57  81 S9        29.57R
SALEM*         PTCLDY    64  55  73 S9        29.58R
METROPOLIS*    CLOUDY    64  57  76 S10       29.64S
$$

ILZ067-068-072-073-078-083-087-091-240700-
SOUTHEAST ILLINOIS

CITY           SKY/WX    TMP DP  RH WIND       PRES   REMARKS
LAWRENCEVILLE  CLOUDY    62  55  77 S15       29.62F
FLORA*         CLOUDY    64  56  76 S16       29.58F
FAIRFIELD*     CLOUDY    64  56  76 S9        29.58F
HARRISBURG*    PTCLDY    65  57  76 S9G18     29.62S
ROBINSON*      CLOUDY    61  55  79 S10G16    29.63F
CARMI*         PTCLDY    60  55  84 SE10      29.62F
$$

ABBREVIATIONS USED IN REMARKS
   TC - TEMPERATURE IN CELSIUS
  WCI - WIND CHILL INDEX
   HX - HEAT INDEX
  VSB - VISIBILITY
$$





USA.gov is the U.S. government's official web portal to all federal, state and local government web resources and services.